User: anonymous   Login
Location: Jackson Park
(37.2862°N, 79.9123°W)
Time: 11:11:00
(UTC+00:00)
Language:

Explorer 11/Cluster Stage 4 - Orbit

View from above orbital plane
View from above orbital plane
View from above satellite
View from above satellite

Ground track
Ground track

The orbit is defined by the following mean orbital elements,

1 00107U          26134.34058969 +.00000000 +00000-0 +13330-3 0 00004
2 00107  28.7762 151.5782 0494094 172.2090 188.6501 14.21989222    01
Epoch (UTC): 14 May 2026 08:10:26
Eccentricity: 0.0494094
inclination: 28.7762°
perigee height: 463 km
apogee height: 1174 km
right ascension of ascending node: 151.5782°
argument of perigee: 172.2090°
revolutions per day: 14.21989222
mean anomaly at epoch: 188.6501°

The dashed part of the orbit path shows where the satellite is in the earth's shadow,  

DLR